TimeMDT,TemperatureF,Dew PointF,Humidity,Sea Level PressureIn,VisibilityMPH,Wind Direction,Wind SpeedMPH,Gust SpeedMPH,PrecipitationIn,Events,Conditions,WindDirDegrees,DateUTC
12:53 AM,75.0,52.0,44,29.87,10.0,SW,13.8,-,N/A,,Overcast,220,2013-08-31 06:53:00
1:53 AM,71.1,54.0,55,29.86,10.0,Calm,Calm,-,N/A,,Mostly Cloudy,0,2013-08-31 07:53:00
2:53 AM,73.0,51.1,46,29.85,10.0,SSW,10.4,-,N/A,,Mostly Cloudy,210,2013-08-31 08:53:00
3:53 AM,66.0,52.0,60,29.87,10.0,SSE,6.9,-,N/A,,Scattered Clouds,160,2013-08-31 09:53:00
4:53 AM,64.9,51.1,61,29.88,10.0,South,4.6,-,N/A,,Scattered Clouds,170,2013-08-31 10:53:00
5:53 AM,69.1,48.0,47,29.87,10.0,West,5.8,-,N/A,,Mostly Cloudy,260,2013-08-31 11:53:00
6:53 AM,66.0,50.0,56,29.92,10.0,WSW,6.9,-,N/A,,Mostly Cloudy,240,2013-08-31 12:53:00
7:53 AM,66.0,55.0,68,29.94,10.0,WSW,8.1,-,N/A,,Mostly Cloudy,250,2013-08-31 13:53:00
8:53 AM,69.1,55.9,63,29.93,10.0,West,9.2,-,N/A,,Mostly Cloudy,260,2013-08-31 14:53:00
9:53 AM,75.0,55.9,51,29.91,10.0,West,8.1,-,N/A,,Mostly Cloudy,270,2013-08-31 15:53:00
10:53 AM,80.1,52.0,38,29.89,10.0,WNW,4.6,-,N/A,,Mostly Cloudy,290,2013-08-31 16:53:00
11:53 AM,84.0,50.0,31,29.87,10.0,West,5.8,-,N/A,,Mostly Cloudy,260,2013-08-31 17:53:00
12:53 PM,89.1,45.0,22,29.84,10.0,NW,6.9,-,N/A,,Scattered Clouds,320,2013-08-31 18:53:00
1:53 PM,91.0,45.0,20,29.83,10.0,North,10.4,-,N/A,,Scattered Clouds,360,2013-08-31 19:53:00
2:53 PM,93.0,45.0,19,29.81,10.0,NNE,11.5,18.4,N/A,,Mostly Cloudy,30,2013-08-31 20:53:00
3:53 PM,88.0,44.1,22,29.83,10.0,NW,21.9,25.3,N/A,,Mostly Cloudy,320,2013-08-31 21:53:00
4:53 PM,80.1,48.0,32,29.86,10.0,NW,21.9,27.6,N/A,,Mostly Cloudy,310,2013-08-31 22:53:00
5:53 PM,81.0,46.9,30,29.86,10.0,NNW,15.0,24.2,N/A,,Mostly Cloudy,340,2013-08-31 23:53:00
6:53 PM,78.1,48.9,36,29.89,10.0,NNW,18.4,-,N/A,,Mostly Cloudy,340,2013-09-01 00:53:00
7:31 PM,75.2,48.2,38,30.14,10.0,SW,11.5,-,N/A,,Mostly Cloudy,220,2013-09-01 01:31:00
7:53 PM,77.0,48.9,37,29.92,10.0,West,13.8,-,N/A,,Mostly Cloudy,270,2013-09-01 01:53:00
8:53 PM,75.9,46.9,36,29.91,10.0,West,11.5,-,N/A,,Mostly Cloudy,260,2013-09-01 02:53:00
9:53 PM,73.9,48.0,40,29.90,10.0,West,9.2,-,N/A,,Mostly Cloudy,270,2013-09-01 03:53:00
10:53 PM,73.9,48.0,40,29.91,10.0,NW,9.2,-,N/A,,Mostly Cloudy,320,2013-09-01 04:53:00
11:53 PM,73.0,48.0,41,29.91,10.0,NNW,9.2,-,N/A,,Mostly Cloudy,340,2013-09-01 05:53:00